Location: Newark
(39.1833°N, 3.3000°W)
Time: 12:21:51
(UTC+00:00)

ISS - Visible Passes

Search period start: 21 March 2019 00:00
Search period end: 31 March 2019 00:00
Orbit: 406 x 411 km, 51.6° (Epoch: 21 March)

Date Brightness Start Highest point End Pass type
(mag) Time Alt. Az. Time Alt. Az. Time Alt. Az.
21 Mar -3.3 19:24:04 10° SSW 19:27:10 40° SE 19:28:52 22° ENE visible
21 Mar -0.6 21:01:02 10° W 21:01:39 14° WNW 21:01:39 14° WNW visible
22 Mar -2.5 20:09:30 10° WSW 20:12:37 39° NNW 20:13:29 32° N visible
23 Mar -3.6 19:18:11 10° WSW 19:21:29 72° NW 19:24:47 10° NE visible
23 Mar -0.7 20:56:29 10° WNW 20:57:51 15° NNW 20:57:51 15° NNW visible
24 Mar -1.4 20:04:37 10° WNW 20:07:11 21° NNW 20:09:16 13° NNE visible
25 Mar -2.0 19:12:56 10° W 19:15:55 31° NNW 19:18:54 10° NE visible
25 Mar -0.7 20:52:17 10° NNW 20:53:15 11° N 20:53:15 11° N visible
26 Mar -1.0 20:00:07 10° NW 20:01:51 13° NNW 20:03:36 10° NNE visible
27 Mar -1.2 19:08:07 10° WNW 19:10:27 18° NNW 19:12:47 10° NNE visible
28 Mar -0.8 19:56:01 10° NNW 19:56:35 10° N 19:57:10 10° N visible
29 Mar -1.0 19:03:41 10° NW 19:05:06 12° NNW 19:06:30 10° NNE visible
29 Mar -0.8 20:42:18 10° N 20:42:45 10° N 20:42:45 10° N visible
